Location: M?digepalle
(16.1753°N, 80.3496°E)
Time: 08:45:58
(UTC+00:00)

Cosmos-2242 - Pass Details

Date: 29 October 2020
Orbit: 592 x 616 km, 82.5° (Epoch: 28 November)

Event Time Altitude Azimuth Distance (km) Brightness Sun altitude
Rises 13:47:01 0° 192° (SSW) 2,813 6.7 -23.8°
Reaches altitude 10° 13:49:14 10° 196° (SSW) 1,914 5.8 -24.3°
Maximum altitude 13:53:23 56° 275° (W) 704 3.5 -25.3°
Enters shadow 13:55:08 32° 339° (NNW) 1,031 4.2 -25.7°
